TimeBST,TemperatureF,Dew PointF,Humidity,Sea Level PressureIn,VisibilityMPH,Wind Direction,Wind SpeedMPH,Gust SpeedMPH,PrecipitationIn,Events,Conditions,WindDirDegrees,DateUTC
12:20 AM,53.6,48.2,82,30.21,6.2,WSW,8.1,-,N/A,,Overcast,250,2013-09-10 23:20:00
12:50 AM,51.8,48.2,88,30.21,6.2,West,9.2,-,N/A,,Mostly Cloudy,260,2013-09-10 23:50:00
1:20 AM,50.0,48.2,94,30.21,6.2,WSW,6.9,-,N/A,,Scattered Clouds,250,2013-09-11 00:20:00
1:50 AM,50.0,48.2,94,30.21,-9999.0,WSW,8.1,-,N/A,,Clear,250,2013-09-11 00:50:00
2:20 AM,50.0,48.2,94,30.21,6.2,WSW,6.9,-,N/A,,Scattered Clouds,250,2013-09-11 01:20:00
2:50 AM,48.2,46.4,93,30.21,6.2,WSW,5.8,-,N/A,,Unknown,240,2013-09-11 01:50:00
3:20 AM,50.0,48.2,94,30.21,6.2,WSW,5.8,-,N/A,,Unknown,250,2013-09-11 02:20:00
3:50 AM,48.2,48.2,100,30.18,-9999.0,WSW,6.9,-,N/A,,Clear,250,2013-09-11 02:50:00
4:20 AM,50.0,48.2,94,30.18,6.2,WSW,8.1,-,N/A,,Unknown,250,2013-09-11 03:20:00
4:50 AM,50.0,48.2,94,30.18,6.2,WSW,6.9,-,N/A,,Unknown,240,2013-09-11 03:50:00
5:20 AM,50.0,50.0,100,30.18,6.2,WSW,6.9,-,N/A,,Unknown,250,2013-09-11 04:20:00
5:50 AM,50.0,50.0,100,30.15,6.2,WSW,6.9,-,N/A,,Unknown,240,2013-09-11 04:50:00
6:50 AM,51.8,50.0,94,30.15,6.2,WSW,5.8,-,N/A,,Unknown,240,2013-09-11 05:50:00
7:20 AM,51.8,50.0,94,30.15,6.2,West,4.6,-,N/A,,Partly Cloudy,260,2013-09-11 06:20:00
7:50 AM,53.6,50.0,88,30.15,6.2,Variable,3.5,-,N/A,,Partly Cloudy,0,2013-09-11 06:50:00
8:20 AM,53.6,51.8,94,30.15,6.2,WSW,6.9,-,N/A,,Partly Cloudy,250,2013-09-11 07:20:00
8:50 AM,55.4,51.8,88,30.15,6.2,WSW,9.2,-,N/A,,Partly Cloudy,250,2013-09-11 07:50:00
9:20 AM,55.4,51.8,88,30.15,6.2,WSW,8.1,-,N/A,,Partly Cloudy,250,2013-09-11 08:20:00
9:50 AM,55.4,50.0,82,30.15,6.2,WSW,10.4,-,N/A,,Partly Cloudy,250,2013-09-11 08:50:00
10:20 AM,55.4,50.0,82,30.12,6.2,WSW,9.2,-,N/A,,Partly Cloudy,250,2013-09-11 09:20:00
10:50 AM,55.4,51.8,88,30.12,6.2,West,9.2,-,N/A,Rain,Light Rain,260,2013-09-11 09:50:00
11:20 AM,53.6,51.8,94,30.12,5.0,West,6.9,-,N/A,Rain,Light Rain,260,2013-09-11 10:20:00
11:50 AM,53.6,53.6,100,30.12,4.3,West,5.8,-,N/A,Rain,Light Rain,270,2013-09-11 10:50:00
12:20 PM,55.4,53.6,94,30.12,4.3,West,4.6,-,N/A,,Mostly Cloudy,260,2013-09-11 11:20:00
12:50 PM,55.4,53.6,94,30.12,3.1,WSW,5.8,-,N/A,,Drizzle,240,2013-09-11 11:50:00
1:20 PM,55.4,55.4,100,30.09,6.2,West,5.8,-,N/A,,Mostly Cloudy,260,2013-09-11 12:20:00
1:50 PM,57.2,55.4,94,30.09,6.2,WSW,4.6,-,N/A,,Mostly Cloudy,250,2013-09-11 12:50:00
2:20 PM,59.0,55.4,88,30.09,6.2,West,5.8,-,N/A,,Overcast,280,2013-09-11 13:20:00
2:50 PM,59.0,55.4,88,30.09,6.2,WNW,4.6,-,N/A,,Mostly Cloudy,300,2013-09-11 13:50:00
3:20 PM,59.0,55.4,88,30.09,6.2,West,6.9,-,N/A,,Mostly Cloudy,260,2013-09-11 14:20:00
3:50 PM,59.0,55.4,88,30.09,6.2,West,6.9,-,N/A,,Mostly Cloudy,260,2013-09-11 14:50:00
4:20 PM,59.0,55.4,88,30.09,6.2,WSW,6.9,-,N/A,,Overcast,250,2013-09-11 15:20:00
4:50 PM,59.0,55.4,88,30.09,6.2,West,4.6,-,N/A,,Overcast,270,2013-09-11 15:50:00
5:20 PM,60.8,55.4,82,30.06,6.2,West,4.6,-,N/A,,Mostly Cloudy,270,2013-09-11 16:20:00
5:50 PM,60.8,55.4,82,30.06,6.2,WSW,5.8,-,N/A,,Mostly Cloudy,250,2013-09-11 16:50:00
6:20 PM,60.8,55.4,82,30.06,6.2,West,3.5,-,N/A,,Mostly Cloudy,260,2013-09-11 17:20:00
6:50 PM,60.8,55.4,82,30.06,6.2,West,3.5,-,N/A,,Overcast,260,2013-09-11 17:50:00
7:20 PM,59.0,57.2,94,30.06,6.2,West,3.5,-,N/A,,Overcast,260,2013-09-11 18:20:00
7:50 PM,59.0,57.2,94,30.06,6.2,WNW,2.3,-,N/A,,Overcast,300,2013-09-11 18:50:00
8:20 PM,59.0,57.2,94,30.09,6.2,WNW,2.3,-,N/A,,Overcast,300,2013-09-11 19:20:00
8:50 PM,57.2,57.2,100,30.09,6.2,WSW,2.3,-,N/A,,Mostly Cloudy,250,2013-09-11 19:50:00
9:20 PM,59.0,57.2,94,30.09,6.2,WSW,4.6,-,N/A,,Overcast,250,2013-09-11 20:20:00
9:50 PM,59.0,57.2,94,30.09,6.2,WSW,3.5,-,N/A,,Overcast,250,2013-09-11 20:50:00
10:20 PM,59.0,57.2,94,30.09,6.2,WSW,4.6,-,N/A,,Mostly Cloudy,240,2013-09-11 21:20:00
10:50 PM,59.0,57.2,94,30.09,6.2,WSW,5.8,-,N/A,,Mostly Cloudy,250,2013-09-11 21:50:00
11:20 PM,57.2,57.2,100,30.09,6.2,WSW,5.8,-,N/A,,Mostly Cloudy,250,2013-09-11 22:20:00
11:50 PM,57.2,57.2,100,30.06,6.2,WSW,4.6,-,N/A,,Mostly Cloudy,250,2013-09-11 22:50:00